CZ-4C DEB, 42671

Orbit data source: Space-Track

CZ-4C DEB, 42671 is space debris in SSO originally from a launch on Thu, 26 Nov 2015 UTC launched from the Taiyaun Space Center, China (TSC). Debris objects in space refer to the collection of defunct objects orbiting the Earth. Examples of debris include non-operational satellites, rocket bodies, and fragments generated from explosions, collisions, or faulty payload assembly.

Loading next visibility...
Identifier
42671, 2015-069D
Orbit
SSO
Country
Flag of CNCN / PRC
Related business
Manufacturer
Unknown
Mission
Spacecraft
Bus & Motor
Unknown
Mass
Unknown
Launch date (UTC)
2015-11-26 (10 years ago)
Launch vehicle
Unknown
Launch site
Taiyaun Space Center, China (TSC)
Object type
Payload
Rocket body
Debris
Shape & HBR
Unknown
Radar Cross Section
Small (<0.1 m²)

Expand to show TLE details & history
Last TLE update: 10 hours ago

TLE from 10 hours ago
0 CZ-4C DEB
1 42671U 15069D   25259.06597863  .00005246  00000-0  72372-3 0  9999
2 42671  97.8183 124.6630 0119279 177.2738 182.9147 14.73734297516061
Epoch: 2025-09-16T01:35Z
TLE epoch observation values (Epoch: 2025-09-16T01:35:00.553Z)
Latitude
-0.00007°
Longitude
105.64908°
Altitude
735.921 km
Speed
7.442 km/s
True Right ascension
08h 18m 39s
True Declination
0° 00' 00"
Sunlit
Object was in daylight at epoch
Visualization orbit readout
Latitude
Unknown
Longitude
Unknown
Altitude
Unknown
Speed
Unknown
Apparent Right ascension
Unknown
Apparent Declination
Unknown
Sunlit
N/A
Visualization observer readout
Local Sidereal Time
04:25:12
Azimuth
Unknown
Elevation
Unknown
Doppler factor
Unknown
Orbital elements
Apogee altitude
730.003 km
Perigee altitude
562.431 km
Semi-major axis
7,024.354 km
Eccentricity
0.01193
Inclination
97.8183°
RAAN
124.663°
Arg. of periapsis
177.2738°
True anomaly
182.84622°
Mean anomaly
182.9147°
Eccentric anomaly
182.88036°
Mean motion
3.68666 °/min
Orbital period
97.65 mins
BSTAR
0.00072372
Loading maneuver chart data...
Computing Atmospheric mass density...
Loading historical data...
Loading historical data...
Loading historical data...
Loading historical data...
Loading historical data...
Loading historical data...
Loading historical data...
Other satellites on launch #69 in the year 2015 (2015-11-26 UTC)

Documentation

Showing up to 5 results
|